FW6259 Weather Reports


time (UTC)temp
C
wind
direction
speed
KPH
gust
KPH
rain 1hr
cm
rain 24hr
cm
rain mn
cm
humidity
%
barometer
mb
20260905204655 18 188 16.1 40.2 0.00 0.00 0.00 56 1017.2
20260905203046 19 229 17.7 38.6 0.00 0.00 0.00 56 1017.1
20260905201700 19 233 14.5 30.6 0.00 0.00 0.00 57 1017.0
20260905200115 19 187 16.1 32.2 0.00 0.00 0.00 55 1017.0
20260905194547 19 245 11.3 29.0 0.00 0.00 0.00 57 1016.9
20260905193101 20 201 16.1 33.8 0.00 0.00 0.00 56 1017.0
20260905191558 20 174 12.9 27.4 0.00 0.00 0.00 57 1016.9
20260905190149 19 229 11.3 29.0 0.00 0.00 0.00 57 1017.0
20260905184608 18 172 11.3 27.4 0.00 0.00 0.00 60 1017.1
20260905183050 18 226 11.3 22.5 0.00 0.00 0.00 62 1017.0
20260905181502 18 223 6.4 22.5 0.00 0.00 0.00 63 1017.1
20260905180059 17 189 11.3 24.1 0.00 0.00 0.00 65 1017.1
20260905174552 15 207 4.8 16.1 0.00 0.00 0.00 72 1017.2
20260905173000 11 204 0.0 3.2 0.00 0.00 0.00 83 1017.2
20260905171558 8 68 0.0 3.2 0.00 0.00 0.00 87 1017.4
20260905170049 7 97 0.0 3.2 0.00 0.00 0.00 89 1017.5
20260905164502 7 1 0.0 3.2 0.00 0.00 0.00 89 1017.3
20260905163054 7 85 0.0 6.4 0.00 0.00 0.00 89 1017.1
20260905161548 6 324 0.0 3.2 0.00 0.00 0.00 90 1017.1
20260905160001 6 309 0.0 3.2 0.00 0.00 0.00 90 1017.1
20260905154602 6 353 0.0 1.6 0.00 0.00 0.00 91 1017.1
20260905153050 6 357 0.0 4.8 0.00 0.00 0.00 91 1017.1
20260905151506 5 158 0.0 1.6 0.00 0.00 0.00 91 1017.2
20260905150049 4 349 0.0 1.6 0.00 0.00 0.00 92 1017.2
20260905144559 4 232 0.0 3.2 0.00 0.00 0.00 92 1017.7
20260905143051 3 357 0.0 3.2 0.00 0.00 0.00 91 1017.5
20260905141546 4 359 0.0 3.2 0.00 0.00 0.00 93 1017.4
20260905140057 3 302 0.0 1.6 0.00 0.00 0.00 91 1017.7
20260905134554 4 88 0.0 0.0 0.00 0.00 0.00 91 1017.5
20260905133043 4 195 0.0 1.6 0.00 0.00 0.00 91 1017.8
20260905131555 4 195 0.0 0.0 0.00 0.00 0.00 93 1017.8
20260905130101 4 195 0.0 3.2 0.00 0.00 0.00 91 1017.8
20260905124556 4 237 0.0 1.6 0.00 0.00 0.00 91 1017.9
20260905123102 5 46 0.0 1.6 0.00 0.00 0.00 89 1018.2
20260905121600 5 48 0.0 0.0 0.00 0.00 0.00 90 1018.4
20260905120050 5 49 0.0 3.2 0.00 0.00 0.00 89 1018.4
20260905114548 5 56 0.0 0.0 0.00 0.00 0.00 89 1018.3
20260905113055 5 79 0.0 0.0 0.00 0.00 0.00 89 1018.4
20260905111558 6 79 0.0 0.0 0.00 0.00 0.00 87 1018.6
20260905110049 6 88 0.0 0.0 0.00 0.00 0.00 86 1018.8
20260905104501 7 170 0.0 0.0 0.00 0.00 0.00 85 1018.7
20260905103059 7 172 0.0 0.0 0.00 0.00 0.00 82 1018.7
20260905101548 8 172 0.0 0.0 0.00 0.00 0.00 82 1018.8
20260905100106 8 167 0.0 3.2 0.00 0.00 0.00 80 1018.9
20260905094551 8 131 0.0 8.0 0.00 0.00 0.00 80 1019.0
20260905093045 8 247 1.6 4.8 0.00 0.00 0.00 81 1018.9
20260905091600 8 259 0.0 3.2 0.00 0.00 0.00 80 1018.9
20260905090049 9 266 0.0 3.2 0.00 0.00 0.00 78 1019.0
20260905084558 9 268 0.0 3.2 0.00 0.00 0.00 78 1019.2
20260905083100 9 296 0.0 3.2 0.00 0.00 0.00 78 1019.0
20260905081554 8 260 0.0 1.6 0.00 0.00 0.00 79 1019.2
20260905080109 8 232 0.0 3.2 0.00 0.00 0.00 75 1019.1
20260905074600 8 264 0.0 1.6 0.00 0.00 0.00 76 1019.1
20260905073052 9 264 0.0 3.2 0.00 0.00 0.00 73 1019.3
20260905071504 9 308 0.0 4.8 0.00 0.00 0.00 75 1019.4
20260905070057 8 247 0.0 1.6 0.00 0.00 0.00 77 1019.6
20260905064559 7 247 0.0 1.6 0.00 0.00 0.00 77 1019.6
20260905063100 8 246 0.0 1.6 0.00 0.00 0.00 76 1019.7
20260905061558 10 269 0.0 3.2 0.00 0.00 0.00 74 1019.6
20260905060056 10 210 0.0 1.6 0.00 0.00 0.00 73 1019.6
20260905054503 10 355 0.0 1.6 0.00 0.00 0.00 73 1019.6
20260905053107 11 355 0.0 0.0 0.00 0.00 0.00 70 1019.6
20260905051555 12 356 0.0 0.0 0.00 0.00 0.00 68 1019.4
20260905050043 13 355 0.0 0.0 0.00 0.00 0.00 65 1019.6
20260905044605 13 355 0.0 0.0 0.00 0.00 0.00 63 1019.6
20260905043105 15 355 0.0 0.0 0.00 0.00 0.00 61 1019.7
20260905041502 16 355 0.0 0.0 0.00 0.00 0.00 56 1019.8
20260905040055 17 355 0.0 1.6 0.00 0.00 0.00 53 1019.8
20260905034554 18 342 0.0 3.2 0.00 0.00 0.00 50 1019.9
20260905033058 19 255 1.6 3.2 0.00 0.00 0.00 49 1019.9
20260905031554 19 255 1.6 8.0 0.00 0.00 0.00 49 1019.9
20260905030050 20 269 4.8 11.3 0.00 0.00 0.00 46 1019.8
20260905024601 21 243 3.2 11.3 0.00 0.00 0.00 46 1019.8
20260905023054 20 229 4.8 9.7 0.00 0.00 0.00 47 1019.8
20260905021552 20 248 3.2 11.3 0.00 0.00 0.00 46 1019.9
20260905020051 21 167 4.8 11.3 0.00 0.00 0.00 44 1020.3
20260905014558 21 238 3.2 11.3 0.00 0.00 0.00 45 1020.3
20260905013047 20 277 4.8 9.7 0.00 0.00 0.00 46 1020.5
20260905011505 21 245 6.4 16.1 0.00 0.00 0.00 45 1020.7
20260905010056 21 188 4.8 11.3 0.00 0.00 0.00 45 1020.8
20260905004551 21 233 3.2 9.7 0.00 0.00 0.00 45 1020.9
20260905003053 21 214 1.6 6.4 0.00 0.00 0.00 46 1021.2
20260905001610 20 312 1.6 11.3 0.00 0.00 0.00 47 1021.3
20260905000052 20 285 3.2 8.0 0.00 0.00 0.00 49 1021.5
20260904234544 19 252 3.2 9.7 0.00 0.00 0.00 49 1021.6
20260904233107 19 219 4.8 9.7 0.00 0.00 0.00 47 1021.7
20260904231550 19 290 4.8 17.7 0.00 0.00 0.00 47 1021.9
20260904230046 19 282 8.0 19.3 0.00 0.00 0.00 46 1022.2
20260904224501 20 255 6.4 9.7 0.00 0.00 0.00 46 1022.2
20260904223055 18 251 3.2 9.7 0.00 0.00 0.00 48 1022.3
20260904221554 18 295 4.8 11.3 0.00 0.00 0.00 47 1022.5
20260904220108 18 257 3.2 9.7 0.00 0.00 0.00 46 1022.7
20260904214556 17 271 3.2 9.7 0.00 0.00 0.00 49 1022.8
20260904213050 17 149 1.6 8.0 0.00 0.00 0.00 49 1022.9
20260904211504 17 295 1.6 6.4 0.00 0.00 0.00 50 1023.0
20260904210101 16 148 1.6 8.0 0.00 0.00 0.00 52 1023.2